Lexington Weather

Lexington, Massachusetts, USA

68°F
9/23/2021 5:17am 
  • Lexington Conditions: Mostly cloudy
  • Temperature: 67.6°F / 19.8°CWarmer 0.9°F than last hour.
  • Dew Point: 66.4°FIncreased 0.9°Fsince last hour.
  • Relative Humidity: 96
  • Wind: Wind from S S 1 mph, 10-min avg: Calm, gust: 3 mph
  • Barometer: 30.03 in Steady
  • Visibility: 10 miles
  • Rain Today: 0.00 in
  •   

Regional Weather Roundup
for Boston / Norton, MA

        
000
ASUS41 KBOX 201404
RWRBOX

REGIONAL WEATHER ROUNDUP
NATIONAL WEATHER SERVICE BOSTON/NORTON MA
1000 AM EDT MON SEP 20 2021

NOTE:  "FAIR" INDICATES FEW OR NO CLOUDS BELOW 12,000 FEET WITH NO 
SIGNIFICANT WEATHER AND/OR OBSTRUCTIONS TO VISIBILITY.

MAZALL-201500-
EASTERN MASSACHUSETTS
  
CITY           SKY/WX    TMP DP  RH WIND       PRES   REMARKS
BOSTON         MOSUNNY   68  54  60 E5        30.39R                  
BEVERLY        SUNNY     66  58  75 NE5       30.38R                  
LAWRENCE       SUNNY     66  55  67 VRB5      30.41R                  
BEDFORD        SUNNY     65  57  75 CALM      30.38R                  
BLUE HILL      NOT AVBL                                               
NORWOOD        SUNNY     68  55  63 CALM      30.38R                  
MARSHFIELD     MOSUNNY   68  59  73 VRB6      30.39R                  
PLYMOUTH       MOSUNNY   67  58  72 E8        30.39R                  
TAUNTON        SUNNY     66  55  67 E6        30.38R                  
NEW BEDFORD    SUNNY     68  55  63 NE8       30.37R                  
$$

MAZALL-201500-
CAPE COD AND THE ISLANDS
  
CITY           SKY/WX    TMP DP  RH WIND       PRES   REMARKS
FALMOUTH       MOSUNNY   66  57  72 NE8       30.38R                  
HYANNIS        SUNNY     69  56  62 NE7       30.36R                  
CHATHAM        SUNNY     68  54  60 NE7       30.39R                  
PROVINCETOWN   SUNNY     68  56  65 NE6       30.40R                  
NANTUCKET      MOSUNNY   71  56  58 NE9       30.37R                  
MARTHAS VNYRD  SUNNY     70  56  61 N7        30.37R                  
$$
 
MAZALL-201500-
CENTRAL AND WESTERN MASSACHUSETTS
  
CITY           SKY/WX    TMP DP  RH WIND       PRES   REMARKS
WORCESTER      SUNNY     64  53  67 S7        30.39R                  
FITCHBURG      SUNNY     63  51  65 SE5       30.39R                  
ORANGE         SUNNY     61  52  72 CALM      30.39S                  
SPRINGFIELD    PTSUNNY   61  55  79 CALM      30.37R                  
WESTFIELD      SUNNY     64  55  72 VRB3      30.38R                  
NORTH ADAMS    SUNNY     62  53  72 CALM      30.36F                  
PITTSFIELD     SUNNY     61  52  72 E3        30.36R                  
$$
 
RIZALL-201500-
RHODE ISLAND
  
CITY           SKY/WX    TMP DP  RH WIND       PRES   REMARKS
PROVIDENCE     MOSUNNY   68  55  63 E6        30.38R                  
NEWPORT        SUNNY     67  53  61 E6        30.38R                  
SMITHFIELD     SUNNY     68  54  60 VRB5      30.39R                  
WESTERLY       SUNNY     66  58  75 VRB3      30.37R                  
$$
 
CTZALL-201500-
CONNECTICUT
  
CITY           SKY/WX    TMP DP  RH WIND       PRES   REMARKS
BRADLEY INTL   PTSUNNY   61  55  81 N5        30.38R                  
HARTFORD       PTSUNNY   63  55  75 VRB3      30.37R                  
BRIDGEPORT     SUNNY     67  60  78 NE7       30.35R                  
DANBURY        SUNNY     65  56  72 CALM      30.37R                  
GROTON         SUNNY     68  56  65 E7        30.36R                  
NEW HAVEN      MOSUNNY   71  62  73 CALM      30.35R                  
CHESTER        NOT AVBL                                               
MERIDEN        PTSUNNY   64  55  72 CALM      30.37R                  
WILLIMANTIC    MOSUNNY   63  57  81 CALM      30.37S                  
OXFORD         SUNNY     63  58  83 E3        30.37R                  
$$

MEZ002-015-021-024-NHZ003-005-008-011-012-014-VTZ005-008-201500-
NORTHERN NEW ENGLAND
  
CITY           SKY/WX    TMP DP  RH WIND       PRES   REMARKS
PORTLAND ME    MOSUNNY   61  51  70 VRB3      30.40R                  
BANGOR ME      MOSUNNY   60  47  61 E3        30.40R                  
CONCORD NH     SUNNY     62  53  72 CALM      30.40R                  
MANCHESTER NH  SUNNY     65  52  62 CALM      30.38R                  
NASHUA NH      SUNNY     63  57  81 CALM      30.40R                  
PORTSMOUTH NH  SUNNY     64  54  68 SE3       30.40R                  
JAFFREY NH     MOSUNNY   64  58  80 VRB5      30.39R                  
KEENE NH       MOSUNNY   54  52  93 CALM      30.40R                  
BURLINGTON VT  MOSUNNY   63  51  65 CALM      30.35R                  
MT. WASHINGTON MOSUNNY   54  18  24 NE7         N/A                   
$$

NYZ052-076-201500-
EASTERN NEW YORK
  
CITY           SKY/WX    TMP DP  RH WIND       PRES   REMARKS
ALBANY         MOSUNNY   57  53  86 CALM      30.36S                  
NEW YORK CITY  MOSUNNY   71  59  65 NE5       30.34R                  
$$
 
ANZALL-201500-
MARINE OBSERVATIONS
  
STATION/POSITION TIME  TEMP    WIND        PRES    VSBY  WAVE
                       AIR SEA DIR/SP/G                  HT/PER
                 (UTC) (F)     (DEG/KT/KT) (MB)    (MI)  (FT/S)
BOSTON BUOY      1340      65   20/  6/  8 1029.3R
BUZZARDS BAY     1300           30/  7/  8 1029.2
NANTUCKET SOUND  1340   68 72   50/  8/ 10 1028.4R
MASS BAY-STELLWA 1304   64      30/  6/  8 1028.3R  1 7/8  3/ 8
ISLE OF SHOALS   1300   60      30/  9/  9 1028.2
S OF BLOCK IS    1326      71                N/A           2/ 8
$$

......................KEY.........................
  SKY/WX - SKY CONDITION/PRESENT WEATHER
  TMP    - TEMPERATURE IN FAHRENHEIT
  DWPT   - DEWPOINT IN FAHRENHEIT
  RH     - RELATIVE HUMIDITY IN PERCENT
  WIND   - DIRECTION AND SPEED IN MPH
  PRES   - MEAN SEA LEVEL PRESSURE IN INCHES OF HG
  WCI    - WIND CHILL INDEX
  VSB    - VISIBILITY IN MILES
  HX     - HEAT INDEX
  TC     - TEMPERATURE IN CELSIUS
  VRB    - VARIABLE WIND DIRECTION
  N/A    - NOT AVAILABLE
  
      

Other recent Regional Weather Roundups

Thu Sep 23, 5:04am

Thu Sep 23, 4:04am

Thu Sep 23, 3:04am

Thu Sep 23, 2:04am

Thu Sep 23, 1:04am

Thu Sep 23, 12:04am

Wed Sep 22, 11:04pm

Wed Sep 22, 10:04pm

Wed Sep 22, 9:04pm

Wed Sep 22, 8:04pm

Wed Sep 22, 7:04pm

Wed Sep 22, 6:04pm

Wed Sep 22, 5:04pm

Wed Sep 22, 4:04pm

Wed Sep 22, 3:04pm

Wed Sep 22, 2:04pm

Wed Sep 22, 1:04pm

Wed Sep 22, 12:05pm

Wed Sep 22, 11:04am

Wed Sep 22, 10:04am

Wed Sep 22, 9:04am

Wed Sep 22, 8:04am

Wed Sep 22, 7:04am

Wed Sep 22, 6:04am

Wed Sep 22, 5:04am

Wed Sep 22, 4:04am

Wed Sep 22, 3:04am

Wed Sep 22, 2:04am

Wed Sep 22, 1:04am

Wed Sep 22, 12:04am

Tue Sep 21, 11:04pm

Tue Sep 21, 10:04pm

Tue Sep 21, 9:04pm

Tue Sep 21, 8:04pm

Tue Sep 21, 7:04pm

Tue Sep 21, 6:04pm

Tue Sep 21, 5:04pm

Tue Sep 21, 4:04pm

Tue Sep 21, 3:04pm

Tue Sep 21, 2:04pm

Tue Sep 21, 1:04pm

Tue Sep 21, 12:04pm

Tue Sep 21, 11:04am

Tue Sep 21, 10:04am

Tue Sep 21, 9:04am

Tue Sep 21, 8:04am

Tue Sep 21, 7:04am

Tue Sep 21, 6:04am

Tue Sep 21, 5:04am

Tue Sep 21, 4:04am

Tue Sep 21, 3:04am

Tue Sep 21, 2:04am

Tue Sep 21, 1:04am

Tue Sep 21, 12:04am

Mon Sep 20, 11:04pm

Mon Sep 20, 10:04pm

Mon Sep 20, 9:04pm

Mon Sep 20, 8:04pm

Mon Sep 20, 7:04pm

Mon Sep 20, 6:04pm

Mon Sep 20, 5:04pm

Mon Sep 20, 4:04pm

Mon Sep 20, 3:04pm

Mon Sep 20, 2:04pm

Mon Sep 20, 1:04pm

Mon Sep 20, 12:04pm

Mon Sep 20, 11:04am

Mon Sep 20, 9:04am

Mon Sep 20, 7:04am

Mon Sep 20, 6:04am

Mon Sep 20, 5:04am

Mon Sep 20, 4:04am

Mon Sep 20, 3:04am

Mon Sep 20, 2:04am

Mon Sep 20, 1:04am

Mon Sep 20, 12:04am

Sun Sep 19, 11:04pm

Sun Sep 19, 10:04pm

Sun Sep 19, 9:04pm

Sun Sep 19, 8:04pm

Sun Sep 19, 7:04pm

Sun Sep 19, 6:04pm

Sun Sep 19, 5:04pm

Sun Sep 19, 4:04pm

Sun Sep 19, 3:04pm

Sun Sep 19, 2:05pm

Sun Sep 19, 1:04pm

Sun Sep 19, 12:04pm

Sun Sep 19, 11:04am

Sun Sep 19, 10:05am

Sun Sep 19, 9:04am

Sun Sep 19, 8:04am

Sun Sep 19, 7:04am

Sun Sep 19, 6:04am

Sun Sep 19, 5:04am

Sun Sep 19, 4:04am

Sun Sep 19, 3:04am

Sun Sep 19, 2:04am

Sun Sep 19, 1:04am

Sun Sep 19, 12:04am

Sat Sep 18, 11:05pm

Sat Sep 18, 10:04pm

Sat Sep 18, 9:04pm

Sat Sep 18, 8:04pm

Sat Sep 18, 7:04pm

Sat Sep 18, 6:04pm

Sat Sep 18, 5:04pm

Sat Sep 18, 4:04pm

Sat Sep 18, 3:04pm

Sat Sep 18, 2:04pm

Sat Sep 18, 1:04pm

Sat Sep 18, 12:04pm

Sat Sep 18, 11:04am

Sat Sep 18, 10:04am

Sat Sep 18, 9:04am

Sat Sep 18, 8:04am

Sat Sep 18, 7:04am

Sat Sep 18, 6:04am

Sat Sep 18, 5:04am

Sat Sep 18, 4:04am

Sat Sep 18, 3:04am

Sat Sep 18, 2:04am

Sat Sep 18, 1:04am

Sat Sep 18, 12:04am

Fri Sep 17, 11:04pm

Fri Sep 17, 10:04pm

Fri Sep 17, 9:04pm

Fri Sep 17, 8:04pm

Fri Sep 17, 7:04pm

Fri Sep 17, 6:04pm

Fri Sep 17, 5:04pm

Fri Sep 17, 4:04pm

Fri Sep 17, 3:04pm

Fri Sep 17, 2:04pm

Fri Sep 17, 1:04pm

Fri Sep 17, 12:05pm

Fri Sep 17, 11:04am

Fri Sep 17, 10:04am

Fri Sep 17, 9:04am

Fri Sep 17, 8:04am

Fri Sep 17, 7:04am

Fri Sep 17, 6:04am

Fri Sep 17, 5:04am

Fri Sep 17, 4:04am

Fri Sep 17, 3:04am

Fri Sep 17, 2:04am

Fri Sep 17, 1:04am

Fri Sep 17, 12:04am

Thu Sep 16, 11:04pm

Thu Sep 16, 10:04pm

Thu Sep 16, 9:04pm

Thu Sep 16, 8:04pm

Thu Sep 16, 7:04pm

Thu Sep 16, 6:04pm

Thu Sep 16, 5:04pm

Thu Sep 16, 4:04pm

Thu Sep 16, 3:04pm

Thu Sep 16, 2:04pm

Thu Sep 16, 1:05pm

Thu Sep 16, 12:04pm

Thu Sep 16, 11:05am

Thu Sep 16, 10:05am

Thu Sep 16, 9:04am

Thu Sep 16, 8:04am

Thu Sep 16, 7:04am

Thu Sep 16, 6:04am

Meta data:

ID: 203f8651-2907-4478-ba48-e9b2b7a110e7
Link: https://api.weather.gov/products/203f8651-2907-4478-ba48-e9b2b7a110e7